Weather History for Chippewa, MI

Change the Weather History Date:

Friday, February 8, 2013

  Actual Average Record
Temperature  
Mean Temperature 12 °F -  
Max Temperature 21 °F 27 °F 45 °F (1991)
Min Temperature 3 °F 0 °F -16 °F (1992)
Degree Days  
Heating Degree Days 53    
Moisture  
Dew Point 8 °F    
Average Humidity 81    
Maximum Humidity 93    
Minimum Humidity 63    
Precipitation  
Precipitation 0.00 in - - ()
Sea Level Pressure  
Sea Level Pressure 30.25 in    
Wind  
Wind Speed 9 mph (North)    
Max Wind Speed 13 mph    
Max Gust Speed 17 mph    
Visibility 10 miles    
Events      
Averages and records for this station are not official NWS values.
T = Trace of Precipitation, MM = Missing Value Source: NWS Daily Summary

Daily Weather History Graph

Daily Weather History Graph

Search for Another Location

Airport:

Trip Planner

Search our weather history database for the weather conditions in past years. The results will help you decide how hot, cold, wet, or windy it might be!

Date:

Astronomy

Feb. 08, 2013 Rise Set
Actual Time 7:51 AM EST 5:53 PM EST
Civil Twilight 7:19 AM EST 6:25 PM EST
Nautical Twilight 6:44 AM EST 7:00 PM EST
Astronomical Twilight 6:09 AM EST 7:35 PM EST
Moon 6:22 AM EST (2/8) 4:24 PM EST (2/8)
Length of Visible Light 11h 05m
Length of Day
10h 02m
Waning Crescent, 3% of the Moon is Illuminated
Feb 8
Waning Crescent
Feb 10
New
Feb 17
First Quarter
Feb 25
Full
Mar 4
Last Quarter

Hourly Weather History & Observations

Time (EST) Temp. Windchill Dew Point Humidity Pressure Visibility Wind Dir Wind Speed Gust Speed Precip Events Conditions
12:15 AM 14.0 °F 2.0 °F 12.2 °F 93% 30.15 in 10.0 mi NE 9.2 mph - N/A   Overcast
12:35 AM 14.0 °F 2.0 °F 12.2 °F 93% 30.16 in 10.0 mi NNE 9.2 mph - N/A   Overcast
12:55 AM 14.0 °F 0.5 °F 12.2 °F 93% 30.16 in 10.0 mi NE 11.5 mph - N/A   Overcast
1:15 AM 14.0 °F 2.9 °F 12.2 °F 93% 30.16 in 10.0 mi NNE 8.1 mph - N/A   Overcast
1:55 AM 12.2 °F -0.2 °F 10.4 °F 92% 30.15 in 10.0 mi NE 9.2 mph - N/A   Overcast
2:15 AM 12.2 °F -1.0 °F 10.4 °F 92% 30.15 in 10.0 mi NNE 10.4 mph - N/A   Overcast
2:35 AM 12.2 °F -1.8 °F 10.4 °F 92% 30.15 in 10.0 mi NNE 11.5 mph - N/A   Overcast
2:55 AM 12.2 °F -1.8 °F 10.4 °F 92% 30.15 in 10.0 mi NNE 11.5 mph - N/A   Overcast
3:15 AM 12.2 °F -0.2 °F 10.4 °F 92% 30.15 in 10.0 mi NNE 9.2 mph 17.3 mph N/A   Overcast
3:35 AM 12.2 °F 0.7 °F 10.4 °F 92% 30.15 in 10.0 mi NNE 8.1 mph - N/A   Overcast
3:55 AM 12.2 °F -0.2 °F 10.4 °F 92% 30.15 in 10.0 mi NNE 9.2 mph - N/A   Overcast
4:15 AM 12.2 °F -2.5 °F 10.4 °F 92% 30.15 in 10.0 mi NNE 12.7 mph - N/A   Overcast
4:35 AM 12.2 °F 0.7 °F 10.4 °F 92% 30.16 in 10.0 mi NNE 8.1 mph - N/A   Overcast
5:15 AM 12.2 °F 0.7 °F 10.4 °F 92% 30.17 in 10.0 mi NNE 8.1 mph - N/A   Overcast
5:35 AM 12.2 °F 2.9 °F 10.4 °F 92% 30.17 in 7.0 mi North 5.8 mph - N/A   Overcast
5:55 AM 12.2 °F 2.9 °F 10.4 °F 92% 30.18 in 5.0 mi North 5.8 mph - N/A   Overcast
6:15 AM 12.2 °F 1.7 °F 10.4 °F 92% 30.18 in 6.0 mi North 6.9 mph - N/A   Overcast
6:35 AM 12.2 °F 0.7 °F 10.4 °F 92% 30.19 in 9.0 mi North 8.1 mph - N/A   Overcast
6:55 AM 12.2 °F 0.7 °F 10.4 °F 92% 30.19 in 6.0 mi North 8.1 mph - N/A   Overcast
7:15 AM 12.2 °F 1.7 °F 10.4 °F 92% 30.20 in 7.0 mi North 6.9 mph - N/A   Overcast
7:35 AM 12.2 °F -0.2 °F 10.4 °F 92% 30.20 in 8.0 mi North 9.2 mph - N/A   Overcast
7:55 AM 12.2 °F -0.2 °F 8.6 °F 85% 30.20 in 10.0 mi North 9.2 mph - N/A   Overcast
8:15 AM 10.4 °F -2.4 °F 8.6 °F 92% 30.21 in 10.0 mi North 9.2 mph - N/A   Overcast
8:35 AM 10.4 °F -1.5 °F 8.6 °F 92% 30.22 in 10.0 mi North 8.1 mph - N/A   Overcast
8:55 AM 10.4 °F -3.3 °F 6.8 °F 85% 30.23 in 10.0 mi North 10.4 mph - N/A   Overcast
9:15 AM 10.4 °F -2.4 °F 6.8 °F 85% 30.24 in 10.0 mi North 9.2 mph - N/A   Mostly Cloudy
9:35 AM 10.4 °F -2.4 °F 6.8 °F 85% 30.24 in 10.0 mi North 9.2 mph - N/A   Scattered Clouds
9:55 AM 10.4 °F -3.3 °F 6.8 °F 85% 30.25 in 10.0 mi North 10.4 mph 16.1 mph N/A   Mostly Cloudy
10:15 AM 12.2 °F -0.2 °F 6.8 °F 79% 30.25 in 10.0 mi North 9.2 mph - N/A   Partly Cloudy
10:35 AM 15.8 °F 4.2 °F 8.6 °F 73% 30.26 in 9.0 mi North 9.2 mph - N/A   Clear
10:55 AM 15.8 °F 6.1 °F 6.8 °F 68% 30.27 in 10.0 mi North 6.9 mph - N/A   Clear
11:15 AM 17.6 °F 6.4 °F 6.8 °F 63% 30.27 in 10.0 mi North 9.2 mph - N/A   Clear
11:35 AM 17.6 °F 8.2 °F 8.6 °F 68% 30.27 in 10.0 mi North 6.9 mph - N/A   Clear
11:55 AM 17.6 °F 6.4 °F 8.6 °F 68% 30.27 in 10.0 mi North 9.2 mph - N/A   Clear
12:15 PM 17.6 °F 6.4 °F 8.6 °F 68% 30.27 in 10.0 mi North 9.2 mph - N/A   Clear
12:35 PM 19.4 °F 8.6 °F 8.6 °F 63% 30.27 in 10.0 mi North 9.2 mph - N/A   Clear
12:55 PM 19.4 °F 8.6 °F 8.6 °F 63% 30.26 in 10.0 mi NNW 9.2 mph - N/A   Clear
1:15 PM 19.4 °F 8.6 °F 10.4 °F 68% 30.26 in 10.0 mi NNW 9.2 mph - N/A   Clear
1:35 PM 19.4 °F 9.5 °F 10.4 °F 68% 30.26 in 10.0 mi NNW 8.1 mph - N/A   Clear
1:55 PM 21.2 °F 11.7 °F 10.4 °F 63% 30.26 in 10.0 mi North 8.1 mph - N/A   Clear
2:15 PM 21.2 °F 10.1 °F 10.4 °F 63% 30.26 in 10.0 mi NNW 10.4 mph - N/A   Clear
2:35 PM 21.2 °F 11.7 °F 10.4 °F 63% 30.26 in 10.0 mi NNW 8.1 mph - N/A   Clear
2:55 PM 21.2 °F 10.1 °F 10.4 °F 63% 30.26 in 10.0 mi NW 10.4 mph - N/A   Clear
3:15 PM 19.4 °F 8.6 °F 10.4 °F 68% 30.27 in 10.0 mi NW 9.2 mph - N/A   Clear
3:35 PM 19.4 °F 10.4 °F 10.4 °F 68% 30.27 in 10.0 mi NW 6.9 mph - N/A   Clear
3:55 PM 19.4 °F 7.9 °F 10.4 °F 68% 30.28 in 10.0 mi NW 10.4 mph - N/A   Clear
4:15 PM 19.4 °F 7.2 °F 10.4 °F 68% 30.28 in 10.0 mi NW 11.5 mph - N/A   Clear
4:35 PM 17.6 °F 5.7 °F 8.6 °F 68% 30.29 in 10.0 mi NNW 10.4 mph - N/A   Clear
4:55 PM 17.6 °F 6.4 °F 8.6 °F 68% 30.29 in 10.0 mi NW 9.2 mph - N/A   Clear
5:15 PM 15.8 °F 2.7 °F 8.6 °F 73% 30.30 in 10.0 mi NW 11.5 mph - N/A   Clear
5:35 PM 15.8 °F 3.4 °F 8.6 °F 73% 30.30 in 10.0 mi NNW 10.4 mph - N/A   Clear
5:55 PM 14.0 °F 1.2 °F 6.8 °F 73% 30.30 in 10.0 mi NNW 10.4 mph - N/A   Clear
6:15 PM 12.2 °F 0.7 °F 6.8 °F 79% 30.31 in 10.0 mi NNW 8.1 mph - N/A   Clear
6:35 PM 10.4 °F -1.5 °F 5.0 °F 79% 30.32 in 10.0 mi NNW 8.1 mph - N/A   Clear
6:55 PM 10.4 °F -1.5 °F 5.0 °F 79% 30.32 in 10.0 mi NNW 8.1 mph - N/A   Clear
7:15 PM 8.6 °F -1.3 °F 3.2 °F 79% 30.33 in 10.0 mi NNW 5.8 mph - N/A   Clear
7:35 PM 8.6 °F 0.1 °F 3.2 °F 79% 30.33 in 10.0 mi NNW 4.6 mph - N/A   Clear
7:55 PM 6.8 °F -0.1 °F 3.2 °F 85% 30.34 in 10.0 mi North 3.5 mph - N/A   Clear
8:15 PM 6.8 °F -0.1 °F 3.2 °F 85% 30.34 in 10.0 mi North 3.5 mph - N/A   Clear
8:35 PM 6.8 °F -0.1 °F 3.2 °F 85% 30.34 in 10.0 mi NNE 3.5 mph - N/A   Clear
8:55 PM 6.8 °F -2.0 °F 3.2 °F 85% 30.33 in 10.0 mi NE 4.6 mph - N/A   Clear
9:15 PM 6.8 °F -4.8 °F 3.2 °F 85% 30.33 in 10.0 mi ENE 6.9 mph - N/A   Clear
9:35 PM 6.8 °F -4.8 °F 1.4 °F 79% 30.34 in 10.0 mi ENE 6.9 mph - N/A   Clear
9:55 PM 6.8 °F -3.5 °F 1.4 °F 79% 30.35 in 10.0 mi NE 5.8 mph - N/A   Clear
10:15 PM 6.8 °F -0.1 °F 1.4 °F 79% 30.36 in 10.0 mi NE 3.5 mph - N/A   Clear
10:35 PM 6.8 °F -3.5 °F 1.4 °F 79% 30.36 in 10.0 mi NNE 5.8 mph - N/A   Clear
10:55 PM 5.0 °F -5.6 °F 1.4 °F 85% 30.36 in 10.0 mi NNE 5.8 mph - N/A   Clear
11:15 PM 5.0 °F -8.1 °F -0.4 °F 78% 30.35 in 10.0 mi NE 8.1 mph - N/A   Clear
11:35 PM 3.2 °F -9.1 °F -0.4 °F 85% 30.35 in 10.0 mi NE 6.9 mph - N/A   Clear
11:55 PM 3.2 °F -7.8 °F -0.4 °F 85% 30.36 in 10.0 mi NE 5.8 mph - N/A   Clear